Content
SEND FEEDBACK

Daily
Averages
Monthly
Summary
United States of America

CASTLE HAYNE, NORTH CAROLINA


Home > North America > United States > North Carolina
Elevation: 35 feet     Latitude: 34 19N     Longitude: 077 55W

WEATHER
 
SELECT A DAY
Number of Records: 208,938;   Date Range: 1/1/95 - 8/12/14
 
SHARE

PRINT THIS DATA

[ ← Previous Day ]
WEATHER ALMANAC - FEBRUARY 21, 2013
[ Next Day → ]
[ °C ]   °F
Weather ElementAverageHighLow
Temperature44.8 °F59 °F (2:53 pm)33.1 °F (3:53 am)
Dewpoint26.7 °F37 °F (8:53 pm)19 °F (6:53 am)
Humidity53.5 %89 % (1:53 am)23 % (3:53 pm)
Barometer30.17 in30.24 in (10:53 pm)30.10 in (3:53 pm)
Wind Speed5.3 mph9.2 mph (8:53 am)
Weather ElementAverage
Visibility10 mi
Wind DirectionESE (123.5 °)

Weather ElementTotal
Precipitation---
Heating Degree Days19 (Base 65)
Averaged from 23 records on February 21, 2013
WEATHER CONDITIONS BREAKOUT
WIND DIRECTION BREAKOUT
WEATHER BY HOUR - FEBRUARY 21, 2013
[ °C ]   °F
Local TimeTemperatureDewpointHumidityBarometerVisibilityWind DirectionWind SpeedGust SpeedPrecipitationEventsConditions
1:53 AM34.0 °F30.9 °F89 %30.11 in10.0 miCalmClear
2:53 AM37.9 °F30.0 °F73 %30.13 in10.0 miNorth (10°)4.6 mphClear
3:53 AM33.1 °F26.1 °F75 %30.12 in10.0 miNNE (30°)5.8 mphClear
4:53 AM35.1 °F23.0 °F61 %30.15 in10.0 miNorth (360°)5.8 mphClear
5:53 AM34.0 °F21.0 °F59 %30.16 in10.0 miNorth (10°)6.9 mphClear
6:53 AM34.0 °F19.0 °F54 %30.18 in10.0 miNorth (10°)8.1 mphClear
7:53 AM37.0 °F19.9 °F50 %30.20 in10.0 miNorth (10°)8.1 mphClear
8:53 AM42.1 °F21.0 °F43 %30.21 in10.0 miNorth (10°)9.2 mphClear
9:53 AM45.0 °F19.9 °F37 %30.22 in10.0 miNNE (20°)9.2 mphClear
10:53 AM48.0 °F21.0 °F34 %30.20 in10.0 miNorth (350°)6.9 mphClear
11:53 AM51.1 °F21.0 °F31 %30.19 in10.0 miNorth (350°)5.8 mphClear
12:53 PM55.4 °F23.0 °F29 %30.17 in10.0 miWNW (300°)6.9 mphClear
1:53 PM57.0 °F23.0 °F27 %30.14 in10.0 miWNW (300°)3.5 mphClear
2:53 PM59.0 °F21.9 °F24 %30.12 in10.0 miNW (320°)6.9 mphClear
3:53 PM59.0 °F21.0 °F23 %30.10 in10.0 miNNW (340°)4.6 mphClear
4:53 PM57.0 °F28.0 °F33 %30.12 in10.0 miVariable5.8 mphClear
5:53 PM50.0 °F35.1 °F57 %30.14 in10.0 miSE (130°)3.5 mphClear
6:53 PM46.9 °F35.1 °F63 %30.17 in10.0 miSSE (160°)3.5 mphClear
7:53 PM46.0 °F36.0 °F68 %30.20 in10.0 miCalmClear
8:53 PM42.1 °F37.0 °F82 %30.20 in10.0 miNNE (30°)5.8 mphClear
9:53 PM41.0 °F35.6 °F81 %30.20 in10.0 miCalmClear
10:53 PM42.1 °F33.1 °F70 %30.24 in10.0 miNE (50°)4.6 mphClear
11:53 PM43.0 °F33.1 °F68 %30.24 in10.0 miNE (50°)5.8 mphClear
Hourly data recorded from KILM, located miles away from Castle Hayne, North Carolina







STORIES FROM OUR PARTNERS